Location: Banff
(51.1667°N, 115.5667°W)
Time: 11:06:01
(UTC+00:00)

A-11 Canister half - Pass Details

Date: 05 December 2020
Orbit: 1524 x 1684 km, 47.3° (Epoch: 20 January)

Event Time Altitude Azimuth Distance (km) Brightness Sun altitude
Exits shadow 10:40:49 26° 148° (SSE) 2,863 10.4 -43.9°
Maximum altitude 10:42:18 27° 135° (SE) 2,815 10.4 -43.7°
Drops below altitude 10° 10:50:13 10° 83° (E) 3,932 11.7 -42.5°
Sets 10:53:58 0° 72° (ENE) 4,908 12.5 -41.9°
